GEESAT 6-06

导读

GEESAT 6-06是中国吉利时空道宇设计建造运营的低轨卫星,属于GEESATCOM吉利星座06组卫星,于北京时间2025年9月24日在山东日照海域通过捷龙三号运载火箭发射升空,卫星顺利进入预定轨道。作为吉利星座一期组网完成的收官卫星,它将为全球提供低延迟、高可靠的卫星物联网通信服务。

基本信息
目录编号:
65718
目录名称:
GEESAT 6-06
国际标识:
2025-214G
轨道中心:
EARTH
卫星名称:
GEESAT 6-06
卫星全名:
GEESAT 6-06
卫星状态:
在轨 (已飞行352 天)
发射日期:
2025-09-24 UTC
国别 :
中国 (CN)
星等 :
--
该卫星已列入 空间交会检测服务 Space Conjunction Data Service (SCDS) ,当前飞行风险评估等级: 无高风险
轨道信息
数据来源 国际轨道数据 AOE轨道数据
星历时间 2026-09-11T09:28:46+0800
11小时前
查看轨道信息
2026-09-10T07:00:00+0800
1天前
查看轨道信息
半长轴 6998.465km 6998.469km
偏心率 0.0008455 0.0008412
轨道倾角 49.989° 49.988°
近地点辐角 202.980° 197.990°
升交点赤经 268.407° 273.513°
平近点角 157.076° 28.056°
近地点 614.41km 614.444km
远地点 626.246km 626.22km
周期 97.110分钟 97.110分钟
每日圈数 14.828549 14.828536
详细信息
使用方式:
暂无
2D轨道图
3D轨道图
轨道高度分析图
轨道倾角分析图
轨道综合分析图
查看轨道综合分析图
交会数据列表
事件ID 空间交会对象 最接近时刻(TCA) 交会距离 交会风险概率(CRP) 交会风险指数(CRI) 操作
CDM_260912-221105-279206-571825
2026-09-12T
22:11:01+0000
1.191 km
极远距离
1.049475E-5 中风险 0.55
CDM_260913-154504-093006-571821
ASTROSAT (40930)
2026-09-13T
15:45:29+0000
2.863 km
极远距离
8.297874E-7 极低风险 0.33
与全量物体交会距离演化趋势
与全量物体交会风险概率演化趋势